DW7322 Weather Reports


Display with metric or nautical units.
time (UTC)temp
F
wind
direction
speed
MPH
gust
MPH
rain 1hr
in
rain 24hr
in
rain mn
in
humidity
%
barometer
mb
20260505101520 49 319 0.0 2.0 0.00 0.00 0.00 68 1007.3
20260505100021 49 318 0.0 0.0 0.00 0.00 0.00 72 1006.1
20260505094537 49 318 0.0 1.0 0.00 0.00 0.00 69 1005.8
20260505093050 50 318 0.0 1.0 0.00 0.00 0.00 68 1006.4
20260505091506 51 318 0.0 1.0 0.00 0.00 0.00 65 1006.3
20260505090122 51 318 0.0 2.0 0.00 0.00 0.00 62 1006.1
20260505084510 52 326 0.0 4.0 0.00 0.00 0.00 60 1005.6
20260505083028 52 314 1.0 4.0 0.00 0.00 0.00 59 1005.1
20260505081550 53 289 0.0 2.0 0.00 0.00 0.00 60 1004.8
20260505080113 52 319 0.0 3.0 0.00 0.00 0.00 60 1003.9
20260505074600 52 260 0.0 1.0 0.00 0.00 0.00 61 1004.0
20260505073018 53 316 0.0 2.0 0.00 0.00 0.00 61 1003.6
20260505071549 53 316 0.0 2.0 0.00 0.00 0.00 59 1003.8
20260505070110 53 322 0.0 1.0 0.00 0.00 0.00 62 1003.6
20260505064548 53 316 0.0 1.0 0.00 0.00 0.00 61 1003.3
20260505063013 54 316 0.0 0.0 0.00 0.00 0.00 59 1002.9
20260505061518 55 316 0.0 0.0 0.00 0.00 0.00 55 1003.2
20260505060038 56 304 0.0 1.0 0.00 0.00 0.00 53 1003.0
20260505054547 56 304 0.0 0.0 0.00 0.00 0.00 54 1002.8
20260505053055 57 304 0.0 0.0 0.00 0.00 0.00 52 1002.7
20260505051509 57 291 0.0 2.0 0.00 0.00 0.00 50 1002.5
20260505050124 58 300 0.0 2.0 0.00 0.00 0.00 50 1002.4
20260505041504 60 304 1.0 4.0 0.00 0.00 0.00 50 1001.7
20260505040122 61 312 1.0 4.0 0.00 0.00 0.00 50 1001.6
20260505034520 62 315 0.0 3.0 0.00 0.00 0.00 51 1001.5
20260505033041 62 304 1.0 4.0 0.00 0.00 0.00 52 1001.3
20260505031600 62 299 0.0 3.0 0.00 0.00 0.00 59 1001.2
20260505030120 60 282 0.0 1.0 0.00 0.00 0.00 77 1001.0
20260505024525 60 272 0.0 1.0 0.00 0.00 0.00 79 1001.2
20260505023055 60 271 0.0 1.0 0.00 0.00 0.00 79 1000.9
20260505021516 60 269 0.0 1.0 0.00 0.00 0.00 79 1000.4
20260505020014 61 247 0.0 0.0 0.00 0.00 0.00 78 999.8
20260505014535 62 247 0.0 1.0 0.00 0.00 0.00 78 999.4
20260505013002 62 246 0.0 1.0 0.00 0.00 0.00 76 999.2
20260505011524 63 227 0.0 5.0 0.00 0.00 0.00 74 998.9
20260505010050 65 233 3.0 8.0 0.00 0.00 0.00 69 999.0
20260505004544 66 222 2.0 5.0 0.00 0.00 0.00 65 998.8
20260505003011 67 193 2.0 6.0 0.00 0.00 0.00 68 998.3
20260505001536 68 225 0.0 1.0 0.00 0.00 0.00 61 997.3
20260505000111 68 210 1.0 3.0 0.00 0.00 0.00 59 997.8
20260504234548 69 222 0.0 1.0 0.00 0.00 0.00 59 997.7
20260504233014 68 259 0.0 1.0 0.00 0.00 0.00 63 998.2
20260504231534 67 229 0.0 1.0 0.00 0.00 0.00 60 998.0
20260504224602 72 283 0.0 8.0 0.00 0.00 0.00 50 998.3
20260504224511 72 314 0.0 8.0 0.00 0.00 0.00 47 998.2
20260504223028 75 306 0.0 6.0 0.00 0.00 0.00 51 997.9
20260504221555 77 238 4.0 8.0 0.00 0.00 0.00 47 997.8
20260504220124 79 198 4.0 8.0 0.00 0.00 0.00 42 997.8
20260504214558 79 232 0.0 1.0 0.00 0.00 0.00 40 997.9
20260504213020 79 257 0.0 6.0 0.00 0.00 0.00 40 998.1
20260504211540 80 216 2.0 5.0 0.00 0.00 0.00 37 998.2
20260504210100 79 257 1.0 5.0 0.00 0.00 0.00 40 998.4
20260504204559 79 255 3.0 7.0 0.00 0.00 0.00 40 998.6
20260504203016 80 219 4.0 9.0 0.00 0.00 0.00 38 998.8
20260504201534 80 224 0.0 4.0 0.00 0.00 0.00 36 998.8
20260504200058 81 207 1.0 4.0 0.00 0.00 0.00 38 999.0
20260504194548 81 232 0.0 4.0 0.00 0.00 0.00 35 999.2
20260504193006 79 255 0.0 5.0 0.00 0.00 0.00 39 999.6
20260504191535 79 284 0.0 5.0 0.00 0.00 0.00 34 999.7
20260504190059 81 260 2.0 9.0 0.00 0.00 0.00 35 999.8
20260504184551 80 275 2.0 5.0 0.00 0.00 0.00 34 999.9
20260504183054 80 278 2.0 6.0 0.00 0.00 0.00 37 999.9
20260504181513 79 264 1.0 6.0 0.00 0.00 0.00 39 1000.0
20260504180001 78 283 3.0 8.0 0.00 0.00 0.00 40 1000.2
20260504174520 78 221 2.0 8.0 0.00 0.00 0.00 39 1000.6
20260504173040 77 213 2.0 6.0 0.00 0.00 0.00 38 1000.8
20260504171558 77 260 0.0 5.0 0.00 0.00 0.00 41 1001.0
20260504171504 77 290 0.0 5.0 0.00 0.00 0.00 42 1001.0
20260504170118 77 217 1.0 5.0 0.00 0.03 0.00 39 1001.3
20260504140111 62 247 0.0 2.0 0.00 0.10 0.00 70 1003.8
20260504120131 46 218 0.0 0.0 0.00 0.10 0.00 88 1004.6